x

Columbia River Bar - 20nm West Of Columbia River Mouth (46029) Wave Buoy

12:50 - Tue 27th Jun 2017 All times are PDT. -7 hours from GMT.

  • Sig Wave height 5.6ft
  • Swell Direction
  • Peak Period 8s
  • Average Period 7s
  • Wind
    9mph, 11mph gusts
  • Sea Temp 58°f
  • Aire Temp 58°f
  • Sea Pressure 1018.2mb
  • Columbia River Bar - 20nm West Of Columbia River Mouth
  • Columbia River Bar - 20nm West Of Columbia River Mouth

More Historic Weather Station data

Upgrade to MSW Pro to gain access to the past 30 days of data for over 8000 Wavebouys and Weather Stations around the globe.

Join Pro

Comparision Forecast

View Surf forecast
   
mar 06/27 12:50 5.5ft 8s 7s 9 11 mph 1018.2mb 58f 58f
lun 06/26 11:50 5ft 9s 7s 9 11 mph 1018.4mb 59f 58f
10:50 6ft 9s 6s 11 13 mph 1018.6mb 59f 58f
9:50 5.5ft 9s 6s 11 16 mph 1018.3mb 60f 58f
8:50 6ft 8s 6s 13 16 mph 1018.1mb 61f 58f
7:50 6ft 8s 6s 13 16 mph 1017.9mb 61f 59f
6:50 6ft 9s 6s 11 16 mph 1017.6mb 61f 59f
5:50 5ft 8s 6s 13 18 mph 1017.6mb 60f 58f
4:50 5.5ft 8s 7s 13 18 mph 1017.7mb 59f 58f
3:50 5.5ft 9s 7s 11 11 mph 1018.1mb 58f 58f
2:50 6ft 8s 7s 9 11 mph 1017.7mb 58f 58f
1:50 6ft 8s 7s 9 11 mph 1017.9mb 58f 58f
12:50 5ft 8s 7s 7 9 mph 1017.9mb 58f 58f
11:50 5ft 8s 7s 11 13 mph 1017.3mb 61f 59f
10:50 5ft 9s 7s 7 11 mph 1017.5mb 61f 59f
9:50 5.5ft 8s 6s 7 9 mph 1017.1mb 61f 59f
8:50 5.5ft 8s 6s 4 7 mph 1016.9mb 60f 59f
7:50 6ft 8s 6s 9 11 mph 1016.2mb 59f 59f
6:50 6ft 8s 7s 9 13 mph 1016.2mb 60f 59f
5:50 6ft 10s 6s 9 11 mph 1015.5mb 61f 59f
4:50 6ft 8s 7s 11 13 mph 1015.6mb 61f 60f
3:50 6ft 8s 6s 9 11 mph 1015.2mb 61f 60f
2:50 5.5ft 7s 6s 9 11 mph 1015mb 61f 60f
1:50 5.5ft 8s 6s 7 9 mph 1015.4mb 61f 59f
12:50 5ft 7s 6s 9 11 mph 1015.7mb 61f 60f
dom 06/25 11:50 5ft 7s 6s 9 11 mph 1015.6mb 60f 59f
10:50 5ft 7s 6s 11 13 mph 1015.2mb 60f 59f
9:50 4.5ft 7s 6s 11 13 mph 1015.4mb 60f 60f
8:50 4.5ft 7s 6s 7 9 mph 1015.2mb 60f 60f
7:50 4.5ft 15s 6s 4 4 mph 1014.7mb 60f 59f
6:50 4ft 6s 5s 4 7 mph 1014.3mb 60f 59f
5:50 4ft 6s 6s 9 11 mph 1014.4mb 60f 59f
4:50 4ft 15s 6s 7 9 mph 1014.7mb 59f 58f
3:50 3.5ft 15s 6s 9 11 mph 1014.5mb 59f 58f
2:50 3.5ft 15s 5s 11 13 mph 1014.3mb 60f 58f
1:50 4ft 15s 6s 13 16 mph 1014.2mb 60f 58f
12:50 3.5ft 15s 6s 9 13 mph 1014.1mb 59f 57f
11:50 3.5ft 15s 5s 9 11 mph 1013.7mb 60f 56f
10:50 3.5ft 16s 5s 9 11 mph 1013.5mb 60f 56f
9:50 3.5ft 15s 5s 9 13 mph 1013.2mb 59f 56f
8:50 3ft 16s 5s 11 13 mph 1013.1mb 59f 56f
7:50 3ft 16s 5s 7 9 mph 1012.7mb 59f 55f
6:50 3ft 16s 5s 9 9 mph 1012.5mb 59f 55f
5:50 3ft 16s 5s 7 9 mph 1012.4mb 59f 55f
4:50 3ft 16s 5s 9 11 mph 1012.1mb 59f 56f
3:50 3ft 16s 5s 9 9 mph 1011.9mb 59f 60f
2:50 3ft 16s 5s 11 13 mph 1011.8mb 59f 62f
1:50 3ft 16s 5s 11 13 mph 1012.1mb 58f 63f
12:50 3ft 16s 5s 13 16 mph 1012.2mb 59f 63f
sáb 06/24 11:50 3.5ft 16s 5s 13 16 mph 1012.5mb 59f 64f
10:50 3.5ft 16s 4s 18 20 mph 1012.6mb 59f 66f
9:50 3.5ft 16s 5s 18 22 mph 1012.9mb 60f 66f
8:50 3.5ft 16s 4s 18 20 mph 1013mb 60f 65f
7:50 3.5ft 15s 4s 20 22 mph 1013.3mb 60f 65f
6:50 3.5ft 16s 4s 20 22 mph 1013.5mb 60f 64f
5:50 3.5ft 16s 4s 20 22 mph 1014mb 59f 64f
4:50 3.5ft 16s 4s 20 22 mph 1014.6mb 59f 64f
3:50 3.5ft 16s 4s 18 22 mph 1015.2mb 59f 64f
2:50 3.5ft 16s 5s 18 20 mph 1015.6mb 60f 64f
1:50 3.5ft 16s 5s 16 18 mph 1015.9mb 59f 65f
12:50 3.5ft 17s 6s 16 18 mph 1016.6mb 59f 64f
11:50 3.5ft 16s 6s 11 11 mph 1017.1mb 59f 62f
10:50 3.5ft 16s 6s 11 11 mph 1017.5mb 59f 60f
9:50 3.5ft 16s 6s 11 11 mph 1017.7mb 59f 61f
8:50 3.5ft 16s 5s 11 13 mph 1017.8mb 58f 61f
7:50 3.5ft 16s 6s 9 9 mph 1018mb 59f 61f
6:50 3.5ft 16s 5s 11 13 mph 1017.9mb 58f 62f
5:50 3.5ft 7s 5s 9 9 mph 1017.9mb 58f 60f
4:50 4ft 6s 5s 9 11 mph 1017.7mb 59f 61f
3:50 4ft 7s 5s 13 16 mph 1017.6mb 59f 62f
2:50 4.5ft 7s 5s 13 16 mph 1017.7mb 58f 62f
1:50 5ft 7s 5s 16 20 mph 1018mb 58f 61f
12:50 5ft 7s 5s 20 22 mph 1018.2mb 59f 62f
vie 06/23 11:50 5ft 7s 5s 20 22 mph 1018.6mb 59f 62f
10:50 5ft 8s 5s 18 20 mph 1018.9mb 59f 61f
9:50 5ft 8s 5s 18 20 mph 1019mb 59f 61f
8:50 4.5ft 17s 5s 20 25 mph 1018.8mb 59f 61f
7:50 4.5ft 8s 5s 22 25 mph 1019mb 59f 61f
6:50 4.5ft 8s 5s 22 25 mph 1019.4mb 59f 62f
5:50 4.5ft 8s 5s 20 22 mph 1019.9mb 59f 62f
4:50 4.5ft 8s 5s 22 25 mph 1020.1mb 59f 61f
3:50 4.5ft 7s 5s 22 27 mph 1020.3mb 59f 60f
2:50 4.5ft 7s 5s 22 27 mph 1020.6mb 59f 60f
1:50 5ft 8s 5s 20 25 mph 1020.9mb 59f 60f
12:50 5ft 7s 5s 20 22 mph 1021mb 59f 60f
11:50 5ft 7s 5s 20 22 mph 1021.1mb 58f 60f
10:50 5ft 7s 5s 18 20 mph 1021.3mb 58f 60f
9:50 6ft 8s 5s 20 22 mph 1021.4mb 58f 59f